When you browse on this site, cookies collect data to enhance your experience and personalize the content and advertising you see.
Visit our Privacy Policy to learn more. By continuing to use the site, you agree to this use of cookies and data.
  • In Romania
  • List of Countries
  • For 7 days
  • Water Temperature
  • Satellite Maps
  • Weather Map
  • Weather Widgets
  • user-avatar
    Login

    Hourly Weather Kotagiri

    Today, 22 May, Wednesday

    Time Temperature Precipitation Wind Pressure Humidity
    00:00 +20°C° 0 mm 2 mps 619 mmHg 60%
    01:00 +21°C° 0 mm 1 mps 618 mmHg 60%
    02:00 +21°C° 0 mm 1 mps 618 mmHg 60%
    03:00 +20°C° 0 mm 1 mps 618 mmHg 61%
    04:00 +20°C° 0 mm 1 mps 618 mmHg 62%
    05:00 +19°C° 0 mm 1 mps 617 mmHg 63%
    06:00 +21°C° 0 mm 1 mps 618 mmHg 58%
    07:00 +23°C° 0 mm 1 mps 619 mmHg 52%
    08:00 +23°C° 0 mm 0 mps 620 mmHg 46%
    09:00 +27°C° 0 mm 1 mps 621 mmHg 43%
    10:00 +28°C° 0 mm 1 mps 621 mmHg 39%
    11:00 +30°C° 0 mm 1 mps 622 mmHg 35%
    12:00 +30°C° 0 mm 2 mps 621 mmHg 34%
    13:00 +30°C° 0 mm 2 mps 621 mmHg 33%
    14:00 +30°C° 0 mm 2 mps 620 mmHg 32%
    15:00 +30°C° 0 mm 2 mps 620 mmHg 34%
    16:00 +29°C° 0 mm 2 mps 620 mmHg 36%
    17:00 +28°C° 0 mm 2 mps 619 mmHg 38%
    18:00 +27°C° 0 mm 2 mps 619 mmHg 43%
    19:00 +25°C° 0 mm 2 mps 619 mmHg 48%
    20:00 +24°C° 0 mm 2 mps 619 mmHg 52%
    21:00 +23°C° 0 mm 1 mps 619 mmHg 54%
    22:00 +23°C° 0 mm 1 mps 619 mmHg 56%
    23:00 +23°C° 0 mm 1 mps 619 mmHg 58%

    Tomorrow, 23 May, Thursday

    Time Temperature Precipitation Wind Pressure Humidity
    00:00 +22°C° 0.4 mm 1 mps 619 mmHg 61%
    01:00 +21°C° 0.4 mm 1 mps 618 mmHg 65%
    02:00 +20°C° 0.4 mm 2 mps 618 mmHg 68%
    03:00 +21°C° 0 mm 1 mps 617 mmHg 68%
    04:00 +21°C° 0 mm 1 mps 617 mmHg 67%
    05:00 +21°C° 0 mm 1 mps 617 mmHg 67%
    06:00 +22°C° 0 mm 1 mps 618 mmHg 62%
    07:00 +23°C° 0 mm 1 mps 619 mmHg 57%
    08:00 +25°C° 0 mm 1 mps 620 mmHg 52%
    09:00 +26°C° 0 mm 1 mps 621 mmHg 47%
    10:00 +28°C° 0 mm 1 mps 621 mmHg 42%
    11:00 +30°C° 0 mm 1 mps 622 mmHg 37%
    12:00 +30°C° 0.1 mm 1 mps 621 mmHg 35%
    13:00 +30°C° 0.1 mm 2 mps 621 mmHg 34%
    14:00 +30°C° 0.1 mm 2 mps 620 mmHg 33%
    15:00 +29°C° 0.1 mm 2 mps 620 mmHg 38%
    16:00 +27°C° 0.1 mm 2 mps 619 mmHg 44%
    17:00 +26°C° 0.1 mm 2 mps 618 mmHg 49%
    18:00 +25°C° 0.2 mm 2 mps 619 mmHg 53%
    19:00 +24°C° 0.2 mm 2 mps 619 mmHg 57%
    20:00 +23°C° 0.2 mm 2 mps 619 mmHg 62%
    21:00 +21°C° 0 mm 2 mps 619 mmHg 64%
    22:00 +21°C° 0 mm 2 mps 619 mmHg 65%
    23:00 +20°C° 0 mm 3 mps 619 mmHg 67%

    Day after tomorrow, 24 May, Friday

    Time Temperature Precipitation Wind Pressure Humidity
    00:00 +20°C° 0.2 mm 2 mps 619 mmHg 70%
    01:00 +20°C° 0.2 mm 2 mps 618 mmHg 72%
    02:00 +20°C° 0.2 mm 2 mps 618 mmHg 74%
    03:00 +19°C° 0.2 mm 2 mps 618 mmHg 75%
    04:00 +19°C° 0.2 mm 2 mps 618 mmHg 77%
    05:00 +19°C° 0.2 mm 2 mps 617 mmHg 78%
    06:00 +21°C° 0.1 mm 1 mps 618 mmHg 70%
    07:00 +23°C° 0.1 mm 1 mps 620 mmHg 62%
    08:00 +25°C° 0.1 mm 1 mps 621 mmHg 55%
    09:00 +26°C° 0.2 mm 1 mps 621 mmHg 50%
    10:00 +28°C° 0.2 mm 1 mps 622 mmHg 45%
    11:00 +30°C° 0.2 mm 1 mps 622 mmHg 40%
    12:00 +30°C° 0.3 mm 1 mps 622 mmHg 40%
    13:00 +30°C° 0.3 mm 1 mps 621 mmHg 40%
    14:00 +30°C° 0.3 mm 1 mps 621 mmHg 39%
    15:00 +28°C° 1.4 mm 1 mps 620 mmHg 45%
    16:00 +27°C° 1.4 mm 1 mps 619 mmHg 51%
    17:00 +25°C° 1.4 mm 1 mps 619 mmHg 56%
    18:00 +24°C° 0.8 mm 1 mps 619 mmHg 61%
    19:00 +23°C° 0.8 mm 2 mps 619 mmHg 66%
    20:00 +21°C° 0.8 mm 2 mps 619 mmHg 70%
    21:00 +21°C° 1.3 mm 2 mps 619 mmHg 71%
    22:00 +21°C° 1.3 mm 2 mps 619 mmHg 71%
    23:00 +20°C° 1.3 mm 2 mps 619 mmHg 72%

    25 May, Saturday

    Time Temperature Precipitation Wind Pressure Humidity
    00:00 +20°C° 0.5 mm 2 mps 619 mmHg 73%
    01:00 +20°C° 0.5 mm 2 mps 618 mmHg 73%
    02:00 +19°C° 0.5 mm 2 mps 618 mmHg 74%
    03:00 +19°C° 0.1 mm 2 mps 618 mmHg 76%
    04:00 +19°C° 0.1 mm 2 mps 617 mmHg 78%
    05:00 +18°C° 0.1 mm 2 mps 617 mmHg 80%
    06:00 +20°C° 0.2 mm 2 mps 618 mmHg 74%
    07:00 +23°C° 0.2 mm 2 mps 619 mmHg 68%
    08:00 +24°C° 0.2 mm 2 mps 620 mmHg 61%
    09:00 +26°C° 0.4 mm 2 mps 621 mmHg 55%
    10:00 +28°C° 0.4 mm 1 mps 621 mmHg 49%
    11:00 +29°C° 0.4 mm 1 mps 622 mmHg 43%
    12:00 +30°C° 0.4 mm 1 mps 621 mmHg 42%
    13:00 +30°C° 0.4 mm 1 mps 621 mmHg 40%
    14:00 +30°C° 0.4 mm 1 mps 620 mmHg 39%
    15:00 +29°C° 0.5 mm 1 mps 620 mmHg 44%
    16:00 +27°C° 0.5 mm 2 mps 619 mmHg 49%
    17:00 +26°C° 0.5 mm 2 mps 618 mmHg 54%
    18:00 +25°C° 1.1 mm 2 mps 619 mmHg 59%
    19:00 +24°C° 1.1 mm 3 mps 619 mmHg 64%
    20:00 +22°C° 1.1 mm 3 mps 619 mmHg 69%
    21:00 +21°C° 0.6 mm 3 mps 619 mmHg 70%
    22:00 +21°C° 0.6 mm 3 mps 619 mmHg 71%
    23:00 +20°C° 0.6 mm 3 mps 619 mmHg 73%

    26 May, Sunday

    Time Temperature Precipitation Wind Pressure Humidity
    00:00 +20°C° 2 mm 3 mps 618 mmHg 74%
    01:00 +20°C° 2 mm 2 mps 618 mmHg 74%
    02:00 +19°C° 2 mm 2 mps 617 mmHg 75%
    03:00 +19°C° 1 mm 2 mps 617 mmHg 74%
    04:00 +19°C° 1 mm 2 mps 617 mmHg 73%
    05:00 +19°C° 1 mm 2 mps 617 mmHg 72%
    06:00 +21°C° 0 mm 2 mps 618 mmHg 66%
    07:00 +23°C° 0 mm 1 mps 619 mmHg 60%
    08:00 +25°C° 0 mm 1 mps 620 mmHg 54%
    09:00 +26°C° 0.1 mm 1 mps 620 mmHg 48%
    10:00 +28°C° 0.1 mm 1 mps 621 mmHg 43%
    11:00 +30°C° 0.1 mm 1 mps 621 mmHg 38%
    12:00 +30°C° 0.5 mm 1 mps 621 mmHg 38%
    13:00 +30°C° 0.5 mm 1 mps 620 mmHg 37%
    14:00 +31°C° 0.5 mm 1 mps 620 mmHg 37%
    15:00 +29°C° 0.6 mm 2 mps 619 mmHg 42%
    16:00 +28°C° 0.6 mm 2 mps 619 mmHg 47%
    17:00 +27°C° 0.6 mm 2 mps 618 mmHg 52%
    18:00 +25°C° 0.7 mm 3 mps 618 mmHg 58%
    19:00 +24°C° 0.7 mm 3 mps 618 mmHg 63%
    20:00 +22°C° 0.7 mm 3 mps 618 mmHg 69%
    21:00 +21°C° 1 mm 2 mps 619 mmHg 70%
    22:00 +21°C° 1 mm 2 mps 619 mmHg 71%
    23:00 +21°C° 1 mm 2 mps 619 mmHg 73%

    27 May, Monday

    Time Temperature Precipitation Wind Pressure Humidity
    00:00 +21°C° 2.4 mm 2 mps 618 mmHg 73%
    01:00 +20°C° 2.4 mm 2 mps 618 mmHg 73%
    02:00 +20°C° 2.4 mm 3 mps 617 mmHg 74%
    03:00 +20°C° 0.1 mm 2 mps 617 mmHg 74%
    04:00 +20°C° 0.1 mm 2 mps 617 mmHg 75%
    05:00 +19°C° 0.1 mm 2 mps 617 mmHg 75%
    06:00 +21°C° 0.1 mm 2 mps 618 mmHg 70%
    07:00 +23°C° 0.1 mm 2 mps 619 mmHg 65%
    08:00 +24°C° 0.1 mm 2 mps 620 mmHg 60%
    09:00 +26°C° 0.5 mm 2 mps 620 mmHg 55%
    10:00 +27°C° 0.5 mm 2 mps 620 mmHg 50%
    11:00 +29°C° 0.5 mm 2 mps 621 mmHg 45%
    12:00 +29°C° 0.6 mm 2 mps 620 mmHg 44%
    13:00 +29°C° 0.6 mm 2 mps 620 mmHg 42%
    14:00 +30°C° 0.6 mm 2 mps 619 mmHg 40%
    15:00 +29°C° 0.5 mm 2 mps 619 mmHg 43%
    16:00 +28°C° 0.5 mm 2 mps 618 mmHg 47%
    17:00 +27°C° 0.5 mm 3 mps 618 mmHg 50%
    18:00 +26°C° 0.4 mm 3 mps 618 mmHg 55%
    19:00 +24°C° 0.4 mm 3 mps 618 mmHg 60%
    20:00 +22°C° 0.4 mm 3 mps 618 mmHg 65%
    21:00 +21°C° 0.4 mm 3 mps 618 mmHg 68%
    22:00 +21°C° 0.4 mm 2 mps 618 mmHg 71%
    23:00 +20°C° 0.4 mm 2 mps 618 mmHg 74%
    Show more